Time,TemperatureF,DewpointF,PressureIn,WindDirection,WindDirectionDegrees,WindSpeedMPH,WindSpeedGustMPH,Humidity,HourlyPrecipIn,Conditions,Clouds,dailyrainin,SoftwareType,DateUTC
2013-07-08 00:01:00,66.6,63.2,29.88,North,0,0.4,1.1,89,0.00,,,0.00,WUHU216HW,2013-07-08 04:01:00,
2013-07-08 00:06:00,66.6,63.2,29.88,North,0,0.0,1.1,89,0.00,,,0.00,WUHU216HW,2013-07-08 04:06:00,
2013-07-08 00:11:00,66.6,63.2,29.88,North,0,0.0,0.4,89,0.00,,,0.00,WUHU216HW,2013-07-08 04:11:00,
2013-07-08 00:16:00,66.6,63.2,29.88,NNE,23,0.7,0.7,89,0.00,,,0.00,WUHU216HW,2013-07-08 04:16:00,
2013-07-08 00:21:00,66.6,63.2,29.88,NNW,338,1.1,1.1,89,0.00,,,0.00,WUHU216HW,2013-07-08 04:21:00,
2013-07-08 00:26:00,66.6,63.2,29.88,NNW,338,0.4,1.1,89,0.00,,,0.00,WUHU216HW,2013-07-08 04:26:00,
2013-07-08 00:31:00,66.6,63.2,29.87,NNW,338,0.0,1.1,89,0.00,,,0.00,WUHU216HW,2013-07-08 04:31:00,
2013-07-08 00:36:00,66.6,63.2,29.87,North,0,0.2,0.4,89,0.00,,,0.00,WUHU216HW,2013-07-08 04:36:00,
2013-07-08 00:41:00,66.6,63.5,29.87,East,90,0.7,0.7,90,0.00,,,0.00,WUHU216HW,2013-07-08 04:41:00,
2013-07-08 00:46:00,66.6,63.5,29.87,ENE,68,1.8,2.7,90,0.00,,,0.00,WUHU216HW,2013-07-08 04:46:00,
2013-07-08 00:51:00,66.8,64.0,29.86,ENE,68,0.9,2.7,91,0.00,,,0.00,WUHU216HW,2013-07-08 04:51:00,
2013-07-08 00:56:00,67.0,64.2,29.86,ENE,68,2.5,2.5,91,0.00,,,0.00,WUHU216HW,2013-07-08 04:56:00,
2013-07-08 01:01:00,67.0,64.2,29.86,NNE,23,0.4,2.5,91,0.00,,,0.00,WUHU216HW,2013-07-08 05:01:00,
2013-07-08 01:06:00,66.8,64.0,29.86,NNE,23,1.1,2.5,91,0.00,,,0.00,WUHU216HW,2013-07-08 05:06:00,
2013-07-08 01:11:00,66.8,64.0,29.85,NE,45,1.8,2.0,91,0.00,,,0.00,WUHU216HW,2013-07-08 05:11:00,
2013-07-08 01:16:00,66.8,64.0,29.85,North,0,0.0,2.7,91,0.00,,,0.00,WUHU216HW,2013-07-08 05:16:00,
2013-07-08 01:21:00,66.8,64.0,29.86,NW,315,1.3,2.7,91,0.00,,,0.00,WUHU216HW,2013-07-08 05:21:00,
2013-07-08 01:26:00,66.8,64.0,29.86,West,270,0.9,2.0,91,0.00,,,0.00,WUHU216HW,2013-07-08 05:26:00,
2013-07-08 01:31:00,66.8,64.0,29.87,NNE,23,0.4,2.0,91,0.00,,,0.00,WUHU216HW,2013-07-08 05:31:00,
2013-07-08 01:36:00,66.8,64.0,29.87,East,90,1.8,2.9,91,0.00,,,0.00,WUHU216HW,2013-07-08 05:36:00,
2013-07-08 01:41:00,66.8,64.0,29.87,East,90,1.1,2.9,91,0.00,,,0.00,WUHU216HW,2013-07-08 05:41:00,
2013-07-08 01:46:00,66.8,64.0,29.87,ESE,113,0.0,2.5,91,0.00,,,0.00,WUHU216HW,2013-07-08 05:46:00,
2013-07-08 01:51:00,67.0,64.2,29.87,SSE,158,1.1,1.3,91,0.00,,,0.00,WUHU216HW,2013-07-08 05:51:00,
2013-07-08 01:56:00,67.0,64.2,29.87,ENE,68,0.0,1.6,91,0.00,,,0.00,WUHU216HW,2013-07-08 05:56:00,
2013-07-08 02:01:00,67.0,64.2,29.86,NE,45,1.1,1.8,91,0.00,,,0.00,WUHU216HW,2013-07-08 06:01:00,
2013-07-08 02:06:00,67.0,64.2,29.86,NNE,23,1.6,1.8,91,0.00,,,0.00,WUHU216HW,2013-07-08 06:06:00,
2013-07-08 02:11:00,67.0,64.2,29.86,North,0,0.4,1.8,91,0.00,,,0.00,WUHU216HW,2013-07-08 06:11:00,
2013-07-08 02:16:00,66.8,64.0,29.86,East,90,0.4,1.6,91,0.00,,,0.00,WUHU216HW,2013-07-08 06:16:00,
2013-07-08 02:21:00,67.0,64.2,29.86,ENE,68,0.4,1.1,91,0.00,,,0.00,WUHU216HW,2013-07-08 06:21:00,
2013-07-08 02:26:00,67.0,64.2,29.86,ENE,68,0.7,1.3,91,0.00,,,0.00,WUHU216HW,2013-07-08 06:26:00,
2013-07-08 02:31:00,67.0,64.2,29.85,NE,45,0.4,1.3,91,0.00,,,0.00,WUHU216HW,2013-07-08 06:31:00,
2013-07-08 02:36:00,67.0,64.2,29.85,ENE,68,0.0,1.1,91,0.00,,,0.00,WUHU216HW,2013-07-08 06:36:00,
2013-07-08 02:41:00,67.0,64.2,29.86,North,0,0.0,1.1,91,0.00,,,0.00,WUHU216HW,2013-07-08 06:41:00,
2013-07-08 02:46:00,66.8,64.0,29.85,NNE,23,0.4,1.1,91,0.00,,,0.00,WUHU216HW,2013-07-08 06:46:00,
2013-07-08 02:51:00,66.8,64.0,29.86,West,270,0.4,1.1,91,0.00,,,0.00,WUHU216HW,2013-07-08 06:51:00,
2013-07-08 02:56:00,66.8,64.0,29.86,West,270,0.0,1.1,91,0.00,,,0.00,WUHU216HW,2013-07-08 06:56:00,
2013-07-08 03:01:00,66.8,64.0,29.86,West,270,0.0,0.9,91,0.00,,,0.00,WUHU216HW,2013-07-08 07:01:00,
2013-07-08 03:06:00,66.8,64.0,29.86,West,270,0.0,0.0,91,0.00,,,0.00,WUHU216HW,2013-07-08 07:06:00,
2013-07-08 03:11:00,66.8,64.0,29.86,SW,225,0.7,1.3,91,0.00,,,0.00,WUHU216HW,2013-07-08 07:11:00,
2013-07-08 03:16:00,66.8,64.0,29.86,SSE,158,0.9,1.3,91,0.00,,,0.00,WUHU216HW,2013-07-08 07:16:00,
2013-07-08 03:21:00,67.0,64.2,29.86,SSE,158,1.8,1.8,91,0.01,,,0.02,WUHU216HW,2013-07-08 07:21:00,
2013-07-08 03:26:00,66.8,64.0,29.86,South,180,2.5,2.5,91,0.01,,,0.02,WUHU216HW,2013-07-08 07:26:00,
2013-07-08 03:31:00,66.8,64.0,29.86,SE,135,3.1,6.0,91,0.02,,,0.02,WUHU216HW,2013-07-08 07:31:00,
2013-07-08 03:36:00,66.8,64.0,29.86,SSE,158,3.1,6.0,91,0.04,,,0.04,WUHU216HW,2013-07-08 07:36:00,
2013-07-08 03:41:00,66.8,64.0,29.86,SE,135,1.3,5.1,91,0.04,,,0.04,WUHU216HW,2013-07-08 07:41:00,
2013-07-08 03:46:00,66.6,63.8,29.86,SW,225,0.0,3.1,91,0.05,,,0.06,WUHU216HW,2013-07-08 07:46:00,
2013-07-08 03:51:00,66.8,64.0,29.86,NNW,338,0.0,1.3,91,0.06,,,0.07,WUHU216HW,2013-07-08 07:51:00,
2013-07-08 03:56:00,66.6,63.8,29.85,NNW,338,0.0,1.1,91,0.08,,,0.08,WUHU216HW,2013-07-08 07:56:00,
2013-07-08 04:01:00,66.6,63.8,29.86,NNW,338,1.1,1.3,91,0.08,,,0.09,WUHU216HW,2013-07-08 08:01:00,
2013-07-08 04:06:00,66.6,63.8,29.86,WNW,293,0.7,1.6,91,0.09,,,0.09,WUHU216HW,2013-07-08 08:06:00,
2013-07-08 04:11:00,66.4,63.6,29.86,WSW,248,2.2,2.2,91,0.10,,,0.11,WUHU216HW,2013-07-08 08:11:00,
2013-07-08 04:16:00,66.6,63.8,29.86,WSW,248,1.1,2.5,91,0.10,,,0.11,WUHU216HW,2013-07-08 08:16:00,
2013-07-08 04:21:00,66.6,63.8,29.86,WSW,248,0.0,2.5,91,0.11,,,0.13,WUHU216HW,2013-07-08 08:21:00,
2013-07-08 04:26:00,66.6,63.8,29.86,West,270,0.4,1.1,91,0.12,,,0.14,WUHU216HW,2013-07-08 08:26:00,
2013-07-08 04:31:00,66.6,63.8,29.87,SW,225,0.0,0.7,91,0.12,,,0.15,WUHU216HW,2013-07-08 08:31:00,
2013-07-08 04:36:00,66.6,63.8,29.86,NNW,338,0.4,0.4,91,0.11,,,0.16,WUHU216HW,2013-07-08 08:36:00,
2013-07-08 04:41:00,66.6,63.8,29.87,WNW,293,0.7,1.1,91,0.11,,,0.17,WUHU216HW,2013-07-08 08:41:00,
2013-07-08 04:46:00,66.6,63.8,29.87,NW,315,0.0,1.1,91,0.10,,,0.17,WUHU216HW,2013-07-08 08:46:00,
2013-07-08 04:51:00,66.6,63.8,29.87,NW,315,0.0,0.7,91,0.11,,,0.18,WUHU216HW,2013-07-08 08:51:00,
2013-07-08 04:56:00,66.6,63.8,29.87,NW,315,0.0,0.0,91,0.11,,,0.20,WUHU216HW,2013-07-08 08:56:00,
2013-07-08 05:01:00,66.4,63.6,29.87,North,0,0.4,1.1,91,0.12,,,0.21,WUHU216HW,2013-07-08 09:01:00,
2013-07-08 05:06:00,66.4,63.6,29.87,North,0,0.0,1.1,91,0.11,,,0.21,WUHU216HW,2013-07-08 09:06:00,
2013-07-08 05:11:00,66.4,63.6,29.87,NNE,23,0.7,0.7,91,0.11,,,0.22,WUHU216HW,2013-07-08 09:11:00,
2013-07-08 05:16:00,66.4,63.6,29.87,NE,45,0.4,0.9,91,0.10,,,0.23,WUHU216HW,2013-07-08 09:16:00,
2013-07-08 05:21:00,66.4,64.0,29.87,NE,45,0.0,0.9,92,0.11,,,0.24,WUHU216HW,2013-07-08 09:21:00,
2013-07-08 05:26:00,66.4,63.6,29.87,ESE,113,0.9,1.3,91,0.10,,,0.24,WUHU216HW,2013-07-08 09:26:00,
2013-07-08 05:31:00,66.4,63.6,29.88,North,0,0.7,1.3,91,0.10,,,0.25,WUHU216HW,2013-07-08 09:31:00,
2013-07-08 05:36:00,66.4,63.6,29.88,NNW,338,0.2,0.9,91,0.08,,,0.25,WUHU216HW,2013-07-08 09:36:00,
2013-07-08 05:41:00,66.4,63.6,29.88,NNW,338,0.0,0.9,91,0.08,,,0.25,WUHU216HW,2013-07-08 09:41:00,
2013-07-08 05:46:00,66.4,63.6,29.87,SE,135,1.1,1.1,91,0.08,,,0.25,WUHU216HW,2013-07-08 09:46:00,
2013-07-08 05:51:00,66.4,63.6,29.87,SE,135,0.0,1.1,91,0.08,,,0.26,WUHU216HW,2013-07-08 09:51:00,
2013-07-08 05:56:00,66.6,63.8,29.87,West,270,0.7,1.1,91,0.06,,,0.26,WUHU216HW,2013-07-08 09:56:00,
2013-07-08 06:01:00,66.6,64.2,29.87,WNW,293,0.7,1.1,92,0.05,,,0.26,WUHU216HW,2013-07-08 10:01:00,
2013-07-08 06:06:00,66.6,64.2,29.87,West,270,0.2,1.1,92,0.05,,,0.26,WUHU216HW,2013-07-08 10:06:00,
2013-07-08 06:11:00,66.8,64.4,29.88,WNW,293,1.1,1.3,92,0.04,,,0.26,WUHU216HW,2013-07-08 10:11:00,
2013-07-08 06:17:00,66.8,64.4,29.88,WNW,293,0.9,1.6,92,0.03,,,0.26,WUHU216HW,2013-07-08 10:17:00,
2013-07-08 06:21:00,66.8,64.4,29.88,WNW,293,0.7,1.6,92,0.02,,,0.26,WUHU216HW,2013-07-08 10:21:00,
2013-07-08 06:26:00,66.8,64.4,29.88,NNW,338,0.0,0.9,92,0.02,,,0.26,WUHU216HW,2013-07-08 10:26:00,
2013-07-08 06:31:00,67.0,64.5,29.88,North,0,0.7,1.6,92,0.01,,,0.26,WUHU216HW,2013-07-08 10:31:00,
2013-07-08 06:36:00,67.0,64.5,29.88,NW,315,1.3,1.6,92,0.01,,,0.26,WUHU216HW,2013-07-08 10:36:00,
2013-07-08 06:41:00,67.0,64.5,29.88,NNW,338,0.9,1.3,92,0.02,,,0.27,WUHU216HW,2013-07-08 10:41:00,
2013-07-08 06:46:00,67.1,64.7,29.88,NNW,338,0.9,1.3,92,0.02,,,0.27,WUHU216HW,2013-07-08 10:46:00,
2013-07-08 06:51:00,67.3,64.9,29.88,NNE,23,0.7,1.8,92,0.01,,,0.27,WUHU216HW,2013-07-08 10:51:00,
2013-07-08 06:57:00,67.5,65.1,29.88,North,0,1.1,1.8,92,0.01,,,0.27,WUHU216HW,2013-07-08 10:57:00,
2013-07-08 07:01:00,67.7,65.3,29.88,North,0,1.6,1.8,92,0.01,,,0.27,WUHU216HW,2013-07-08 11:01:00,
2013-07-08 07:07:00,67.7,65.3,29.88,NNE,23,1.8,2.5,92,0.01,,,0.27,WUHU216HW,2013-07-08 11:07:00,
2013-07-08 07:12:00,67.7,65.3,29.88,North,0,0.7,2.5,92,0.01,,,0.27,WUHU216HW,2013-07-08 11:12:00,
2013-07-08 07:17:00,67.7,65.3,29.88,NE,45,1.3,1.8,92,0.01,,,0.27,WUHU216HW,2013-07-08 11:17:00,
2013-07-08 07:22:00,67.7,65.3,29.88,ENE,68,1.8,1.8,92,0.01,,,0.27,WUHU216HW,2013-07-08 11:22:00,
2013-07-08 07:27:00,67.9,65.4,29.88,NE,45,1.6,1.8,92,0.01,,,0.27,WUHU216HW,2013-07-08 11:27:00,
2013-07-08 07:32:00,68.0,65.6,29.88,ENE,68,2.5,2.9,92,0.01,,,0.27,WUHU216HW,2013-07-08 11:32:00,
2013-07-08 07:36:00,68.0,65.6,29.88,NNE,23,0.9,2.9,92,0.00,,,0.27,WUHU216HW,2013-07-08 11:36:00,
2013-07-08 07:42:00,68.0,65.3,29.88,NNE,23,1.8,2.5,91,0.00,,,0.27,WUHU216HW,2013-07-08 11:42:00,
2013-07-08 07:46:00,68.4,65.6,29.88,NNE,23,1.1,2.2,91,0.00,,,0.27,WUHU216HW,2013-07-08 11:46:00,
2013-07-08 07:51:00,68.8,66.0,29.88,NNE,23,0.7,2.5,91,0.00,,,0.27,WUHU216HW,2013-07-08 11:51:00,
2013-07-08 07:56:00,69.1,66.3,29.88,NNE,23,2.7,3.1,91,0.00,,,0.27,WUHU216HW,2013-07-08 11:56:00,
2013-07-08 08:01:00,69.1,66.3,29.88,NNE,23,2.0,3.8,91,0.00,,,0.27,WUHU216HW,2013-07-08 12:01:00,
2013-07-08 08:06:00,69.5,66.4,29.88,NNE,23,1.6,3.8,90,0.00,,,0.27,WUHU216HW,2013-07-08 12:06:00,
2013-07-08 08:11:00,69.7,66.6,29.88,North,0,0.7,2.7,90,0.00,,,0.27,WUHU216HW,2013-07-08 12:11:00,
2013-07-08 08:17:00,70.2,67.1,29.88,NNE,23,1.1,2.0,90,0.00,,,0.27,WUHU216HW,2013-07-08 12:17:00,
2013-07-08 08:22:00,70.4,67.3,29.88,NNE,23,1.3,1.8,90,0.00,,,0.27,WUHU216HW,2013-07-08 12:22:00,
2013-07-08 08:27:00,70.4,67.0,29.89,NE,45,1.3,1.8,89,0.00,,,0.27,WUHU216HW,2013-07-08 12:27:00,
2013-07-08 08:32:00,70.4,67.0,29.89,North,0,0.4,1.8,89,0.00,,,0.27,WUHU216HW,2013-07-08 12:32:00,
2013-07-08 08:37:00,70.2,66.8,29.89,NNE,23,0.7,1.6,89,0.00,,,0.27,WUHU216HW,2013-07-08 12:37:00,
2013-07-08 08:42:00,70.2,66.8,29.89,North,0,0.7,1.6,89,0.00,,,0.27,WUHU216HW,2013-07-08 12:42:00,
2013-07-08 08:47:00,70.4,67.0,29.89,NNE,23,0.9,2.0,89,0.00,,,0.27,WUHU216HW,2013-07-08 12:47:00,
2013-07-08 08:52:00,70.4,66.6,29.89,NNE,23,0.4,2.5,88,0.00,,,0.27,WUHU216HW,2013-07-08 12:52:00,
2013-07-08 08:57:00,70.6,66.8,29.89,NE,45,0.2,2.5,88,0.00,,,0.27,WUHU216HW,2013-07-08 12:57:00,
2013-07-08 09:02:00,70.7,67.0,29.89,ESE,113,1.1,1.1,88,0.00,,,0.27,WUHU216HW,2013-07-08 13:02:00,
2013-07-08 09:07:00,70.7,66.7,29.88,ENE,68,2.0,2.5,87,0.00,,,0.27,WUHU216HW,2013-07-08 13:07:00,
2013-07-08 09:12:00,70.7,67.0,29.88,East,90,1.8,2.9,88,0.00,,,0.27,WUHU216HW,2013-07-08 13:12:00,
2013-07-08 09:17:00,70.7,66.7,29.90,WNW,293,1.8,2.9,87,0.00,,,0.27,WUHU216HW,2013-07-08 13:17:00,
2013-07-08 09:22:00,70.6,66.8,29.89,NE,45,1.1,2.0,88,0.00,,,0.27,WUHU216HW,2013-07-08 13:22:00,
2013-07-08 09:27:00,70.9,67.1,29.89,ENE,68,0.4,1.8,88,0.00,,,0.27,WUHU216HW,2013-07-08 13:27:00,
2013-07-08 09:32:00,71.6,67.6,29.89,ENE,68,2.5,2.7,87,0.00,,,0.27,WUHU216HW,2013-07-08 13:32:00,
2013-07-08 09:37:00,72.4,68.3,29.88,NNE,23,2.0,3.8,87,0.00,,,0.27,WUHU216HW,2013-07-08 13:37:00,
2013-07-08 09:42:00,73.3,69.2,29.89,ESE,113,0.0,3.8,87,0.00,,,0.27,WUHU216HW,2013-07-08 13:42:00,
2013-07-08 09:47:00,74.2,69.4,29.89,WNW,293,0.2,2.5,85,0.00,,,0.27,WUHU216HW,2013-07-08 13:47:00,
2013-07-08 09:52:00,74.3,68.9,29.89,NW,315,1.8,2.0,83,0.00,,,0.27,WUHU216HW,2013-07-08 13:52:00,
2013-07-08 09:57:00,73.8,68.7,29.89,NW,315,0.0,2.2,84,0.00,,,0.27,WUHU216HW,2013-07-08 13:57:00,
2013-07-08 10:02:00,74.0,68.9,29.89,WNW,293,0.2,2.2,84,0.00,,,0.27,WUHU216HW,2013-07-08 14:02:00,
2013-07-08 10:07:00,74.5,69.4,29.89,NE,45,0.4,1.8,84,0.00,,,0.27,WUHU216HW,2013-07-08 14:07:00,
2013-07-08 10:12:00,75.1,69.9,29.89,ESE,113,1.3,1.3,84,0.00,,,0.27,WUHU216HW,2013-07-08 14:12:00,
2013-07-08 10:17:00,76.0,70.8,29.89,SE,135,0.7,2.7,84,0.00,,,0.27,WUHU216HW,2013-07-08 14:17:00,
2013-07-08 10:22:00,77.0,70.7,29.89,SSW,203,1.1,2.7,81,0.00,,,0.27,WUHU216HW,2013-07-08 14:22:00,
2013-07-08 10:27:00,77.6,70.1,29.89,NE,45,1.3,2.5,78,0.00,,,0.27,WUHU216HW,2013-07-08 14:27:00,
2013-07-08 10:32:00,77.2,69.4,29.89,SSE,158,0.7,2.7,77,0.00,,,0.27,WUHU216HW,2013-07-08 14:32:00,
2013-07-08 10:37:00,76.7,69.3,29.89,SE,135,0.0,2.7,78,0.00,,,0.27,WUHU216HW,2013-07-08 14:37:00,
2013-07-08 10:42:00,77.4,70.0,29.89,SSE,158,2.5,3.8,78,0.00,,,0.27,WUHU216HW,2013-07-08 14:42:00,
2013-07-08 10:47:00,78.5,70.7,29.89,SE,135,0.0,3.8,77,0.00,,,0.27,WUHU216HW,2013-07-08 14:47:00,
2013-07-08 10:52:00,79.2,70.9,29.89,South,180,2.0,2.7,76,0.00,,,0.27,WUHU216HW,2013-07-08 14:52:00,
2013-07-08 10:57:00,79.6,70.6,29.89,WSW,248,2.7,4.5,74,0.00,,,0.27,WUHU216HW,2013-07-08 14:57:00,
2013-07-08 11:02:00,79.9,71.3,29.89,North,0,0.4,4.5,75,0.00,,,0.27,WUHU216HW,2013-07-08 15:02:00,
2013-07-08 11:07:00,81.2,72.1,29.89,SSW,203,1.8,4.0,74,0.00,,,0.27,WUHU216HW,2013-07-08 15:07:00,
2013-07-08 11:13:00,82.3,71.5,29.89,South,180,4.3,5.1,70,0.00,,,0.27,WUHU216HW,2013-07-08 15:13:00,
2013-07-08 11:18:00,82.6,72.6,29.89,SSE,158,3.1,6.3,72,0.00,,,0.27,WUHU216HW,2013-07-08 15:18:00,
2013-07-08 11:23:00,83.2,72.4,29.89,SSW,203,5.1,6.9,70,0.00,,,0.27,WUHU216HW,2013-07-08 15:23:00,
2013-07-08 11:28:00,82.1,69.9,29.89,South,180,4.0,6.9,67,0.00,,,0.27,WUHU216HW,2013-07-08 15:28:00,
2013-07-08 11:33:00,81.7,70.6,29.89,South,180,4.0,7.4,69,0.00,,,0.27,WUHU216HW,2013-07-08 15:33:00,
2013-07-08 11:37:00,81.7,71.0,29.89,South,180,5.4,7.4,70,0.00,,,0.27,WUHU216HW,2013-07-08 15:37:00,
2013-07-08 11:43:00,82.4,71.2,29.89,SSE,158,4.0,6.9,69,0.00,,,0.27,WUHU216HW,2013-07-08 15:43:00,
2013-07-08 11:48:00,82.1,69.9,29.89,SE,135,5.1,6.9,67,0.00,,,0.27,WUHU216HW,2013-07-08 15:48:00,
2013-07-08 11:52:00,82.6,71.4,29.89,SSE,158,3.8,7.4,69,0.00,,,0.27,WUHU216HW,2013-07-08 15:52:00,
2013-07-08 11:57:00,83.2,70.6,29.89,SW,225,5.8,8.1,66,0.00,,,0.27,WUHU216HW,2013-07-08 15:57:00,
2013-07-08 12:02:00,83.2,70.6,29.89,SSW,203,6.0,8.1,66,0.00,,,0.27,WUHU216HW,2013-07-08 16:02:00,
2013-07-08 12:08:00,83.3,70.7,29.89,SSW,203,6.0,8.1,66,0.00,,,0.27,WUHU216HW,2013-07-08 16:08:00,
2013-07-08 12:13:00,82.6,70.0,29.89,SSW,203,2.5,7.6,66,0.00,,,0.27,WUHU216HW,2013-07-08 16:13:00,
2013-07-08 12:18:00,82.3,69.7,29.89,SSW,203,4.0,7.4,66,0.00,,,0.27,WUHU216HW,2013-07-08 16:18:00,
2013-07-08 12:23:00,82.4,70.7,29.89,South,180,3.6,6.7,68,0.00,,,0.27,WUHU216HW,2013-07-08 16:23:00,
2013-07-08 12:28:00,83.5,71.8,29.89,SSE,158,5.6,6.7,68,0.00,,,0.27,WUHU216HW,2013-07-08 16:28:00,
2013-07-08 12:33:00,84.8,72.6,29.89,SSE,158,4.5,6.5,67,0.00,,,0.27,WUHU216HW,2013-07-08 16:33:00,
2013-07-08 12:38:00,85.3,71.7,29.89,SSE,158,5.4,6.7,64,0.00,,,0.27,WUHU216HW,2013-07-08 16:38:00,
2013-07-08 12:43:00,85.5,71.9,29.89,WSW,248,0.0,6.7,64,0.00,,,0.27,WUHU216HW,2013-07-08 16:43:00,
2013-07-08 12:48:00,86.0,71.0,29.89,SSW,203,3.1,5.8,61,0.00,,,0.27,WUHU216HW,2013-07-08 16:48:00,
2013-07-08 12:52:00,86.8,71.3,29.89,SSE,158,1.1,5.8,60,0.00,,,0.27,WUHU216HW,2013-07-08 16:52:00,
2013-07-08 12:58:00,86.8,71.7,29.88,SSW,203,0.7,5.1,61,0.00,,,0.27,WUHU216HW,2013-07-08 16:58:00,
2013-07-08 13:03:00,85.3,70.4,29.89,WNW,293,1.3,5.1,61,0.00,,,0.27,WUHU216HW,2013-07-08 17:03:00,
2013-07-08 13:08:00,81.4,68.9,29.89,WNW,293,5.4,5.6,66,0.04,,,0.30,WUHU216HW,2013-07-08 17:08:00,
2013-07-08 13:14:00,75.6,67.5,29.90,NNW,338,2.5,5.8,76,0.10,,,0.37,WUHU216HW,2013-07-08 17:14:00,
2013-07-08 13:19:00,73.8,67.0,29.90,NW,315,1.6,5.8,79,0.41,,,0.67,WUHU216HW,2013-07-08 17:19:00,
2013-07-08 13:24:00,73.3,66.8,29.90,NE,45,1.3,3.4,80,0.46,,,0.72,WUHU216HW,2013-07-08 17:24:00,
2013-07-08 13:29:00,72.7,67.0,29.90,ENE,68,0.4,2.0,82,0.49,,,0.76,WUHU216HW,2013-07-08 17:29:00,
2013-07-08 13:34:00,72.5,67.4,29.90,East,90,3.1,3.6,84,0.50,,,0.77,WUHU216HW,2013-07-08 17:34:00,
2013-07-08 13:39:00,72.4,67.2,29.90,East,90,2.5,3.6,84,0.51,,,0.78,WUHU216HW,2013-07-08 17:39:00,
2013-07-08 13:44:00,72.0,66.9,29.90,ENE,68,0.4,3.1,84,0.53,,,0.80,WUHU216HW,2013-07-08 17:44:00,
2013-07-08 13:50:00,72.4,67.2,29.90,ESE,113,1.6,2.5,84,0.54,,,0.81,WUHU216HW,2013-07-08 17:50:00,
2013-07-08 13:55:00,72.9,67.8,29.90,SE,135,1.1,1.6,84,0.54,,,0.81,WUHU216HW,2013-07-08 17:55:00,
2013-07-08 14:00:00,73.6,68.9,29.90,SSE,158,0.4,1.3,85,0.54,,,0.81,WUHU216HW,2013-07-08 18:00:00,
2013-07-08 14:06:00,74.2,69.4,29.90,SE,135,1.1,1.8,85,0.51,,,0.81,WUHU216HW,2013-07-08 18:06:00,
2013-07-08 14:11:00,74.7,69.9,29.90,SE,135,1.8,2.7,85,0.46,,,0.81,WUHU216HW,2013-07-08 18:11:00,
2013-07-08 14:16:00,75.1,69.9,29.90,East,90,2.2,2.9,84,0.37,,,0.81,WUHU216HW,2013-07-08 18:16:00,
2013-07-08 14:21:00,75.2,70.1,29.90,East,90,1.3,2.9,84,0.08,,,0.81,WUHU216HW,2013-07-08 18:21:00,
2013-07-08 14:26:00,75.2,69.8,29.90,ENE,68,2.0,3.4,83,0.05,,,0.81,WUHU216HW,2013-07-08 18:26:00,
2013-07-08 14:33:00,75.1,69.9,29.90,East,90,1.3,3.4,84,0.03,,,0.81,WUHU216HW,2013-07-08 18:33:00,
2013-07-08 14:38:00,75.6,70.1,29.90,ESE,113,2.2,2.9,83,0.03,,,0.81,WUHU216HW,2013-07-08 18:38:00,
2013-07-08 14:44:00,76.1,70.7,29.90,East,90,1.3,2.9,83,0.01,,,0.81,WUHU216HW,2013-07-08 18:44:00,
2013-07-08 14:49:00,77.2,71.6,29.90,SE,135,2.7,3.1,83,0.00,,,0.81,WUHU216HW,2013-07-08 18:49:00,
2013-07-08 14:54:00,77.8,71.8,29.90,SE,135,2.9,3.4,82,0.00,,,0.81,WUHU216HW,2013-07-08 18:54:00,
2013-07-08 14:59:00,78.1,72.2,29.90,SE,135,2.5,3.4,82,0.00,,,0.81,WUHU216HW,2013-07-08 18:59:00,
2013-07-08 15:04:00,78.7,72.4,29.90,ESE,113,2.5,3.1,81,0.00,,,0.81,WUHU216HW,2013-07-08 19:04:00,
2013-07-08 15:09:00,79.2,72.9,29.90,SE,135,2.2,3.4,81,0.00,,,0.81,WUHU216HW,2013-07-08 19:09:00,
2013-07-08 15:14:00,79.9,73.6,29.89,WSW,248,0.7,3.4,81,0.00,,,0.81,WUHU216HW,2013-07-08 19:14:00,
2013-07-08 15:15:00,80.1,73.8,29.89,West,270,0.7,3.4,81,0.00,,,0.81,WUHU216HW,2013-07-08 19:15:00,
2013-07-08 15:17:00,80.3,73.6,29.89,WSW,248,1.1,3.1,80,0.00,,,0.81,WUHU216HW,2013-07-08 19:17:00,
2013-07-08 15:18:00,80.5,73.8,29.89,WNW,293,1.8,2.2,80,0.00,,,0.81,WUHU216HW,2013-07-08 19:18:00,
2013-07-08 15:20:00,80.6,73.6,29.89,WNW,293,1.8,2.2,79,0.00,,,0.81,WUHU216HW,2013-07-08 19:20:00,
2013-07-08 15:21:00,80.8,73.8,29.89,SSW,203,2.9,2.9,79,0.00,,,0.81,WUHU216HW,2013-07-08 19:21:00,
2013-07-08 15:23:00,80.8,73.4,29.89,SSW,203,2.7,4.0,78,0.00,,,0.81,WUHU216HW,2013-07-08 19:23:00,
2013-07-08 15:24:00,80.8,73.8,29.90,SSW,203,3.4,4.0,79,0.00,,,0.81,WUHU216HW,2013-07-08 19:24:00,
2013-07-08 15:25:00,80.6,73.2,29.89,South,180,4.0,4.0,78,0.00,,,0.81,WUHU216HW,2013-07-08 19:25:00,
2013-07-08 15:26:00,80.6,73.2,29.89,SSW,203,2.5,4.0,78,0.00,,,0.81,WUHU216HW,2013-07-08 19:26:00,
2013-07-08 15:27:00,80.6,72.8,29.90,South,180,3.4,4.0,77,0.00,,,0.81,WUHU216HW,2013-07-08 19:27:00,
2013-07-08 15:28:00,80.6,73.2,29.89,SSE,158,2.5,4.0,78,0.00,,,0.81,WUHU216HW,2013-07-08 19:28:00,
2013-07-08 15:29:00,80.5,73.0,29.89,SSE,158,3.8,4.0,78,0.00,,,0.81,WUHU216HW,2013-07-08 19:29:00,
2013-07-08 15:30:00,80.5,73.0,29.89,SSE,158,3.4,4.7,78,0.00,,,0.81,WUHU216HW,2013-07-08 19:30:00,
2013-07-08 15:31:00,80.5,73.0,29.89,South,180,4.0,4.7,78,0.00,,,0.81,WUHU216HW,2013-07-08 19:31:00,
2013-07-08 15:32:00,80.6,73.2,29.89,South,180,4.9,5.8,78,0.00,,,0.81,WUHU216HW,2013-07-08 19:32:00,
2013-07-08 15:33:00,80.6,72.8,29.89,South,180,5.4,5.8,77,0.00,,,0.81,WUHU216HW,2013-07-08 19:33:00,
2013-07-08 15:34:00,80.5,72.6,29.89,SSW,203,4.0,5.8,77,0.00,,,0.81,WUHU216HW,2013-07-08 19:34:00,
2013-07-08 15:35:00,80.3,72.5,29.89,SW,225,4.7,5.8,77,0.00,,,0.81,WUHU216HW,2013-07-08 19:35:00,
2013-07-08 15:36:00,80.3,72.5,29.89,SSW,203,3.4,5.8,77,0.00,,,0.81,WUHU216HW,2013-07-08 19:36:00,
2013-07-08 15:37:00,80.1,72.3,29.89,SSW,203,5.4,5.8,77,0.00,,,0.81,WUHU216HW,2013-07-08 19:37:00,
2013-07-08 15:38:00,79.9,72.1,29.89,SSW,203,1.8,6.3,77,0.00,,,0.81,WUHU216HW,2013-07-08 19:38:00,
2013-07-08 15:39:00,79.7,71.9,29.90,South,180,6.0,6.3,77,0.00,,,0.81,WUHU216HW,2013-07-08 19:39:00,
2013-07-08 15:40:00,79.6,71.7,29.89,SW,225,5.6,6.7,77,0.00,,,0.81,WUHU216HW,2013-07-08 19:40:00,
2013-07-08 15:41:00,79.6,72.1,29.90,SSW,203,7.4,7.4,78,0.00,,,0.81,WUHU216HW,2013-07-08 19:41:00,
2013-07-08 15:42:00,79.6,72.1,29.90,SW,225,4.5,7.4,78,0.00,,,0.81,WUHU216HW,2013-07-08 19:42:00,
2013-07-08 15:43:00,79.6,72.1,29.90,SSW,203,2.9,7.4,78,0.00,,,0.81,WUHU216HW,2013-07-08 19:43:00,
2013-07-08 15:44:00,79.6,72.1,29.90,SSW,203,5.4,7.4,78,0.00,,,0.81,WUHU216HW,2013-07-08 19:44:00,
2013-07-08 15:45:00,79.6,72.1,29.90,South,180,7.8,7.8,78,0.00,,,0.81,WUHU216HW,2013-07-08 19:45:00,
2013-07-08 15:46:00,79.6,72.1,29.90,SSW,203,7.2,8.9,78,0.00,,,0.81,WUHU216HW,2013-07-08 19:46:00,
2013-07-08 15:47:00,79.6,71.7,29.90,SSE,158,6.3,8.9,77,0.00,,,0.81,WUHU216HW,2013-07-08 19:47:00,
2013-07-08 15:48:00,79.6,71.7,29.90,SSW,203,9.4,10.3,77,0.00,,,0.81,WUHU216HW,2013-07-08 19:48:00,
2013-07-08 15:49:00,79.6,71.3,29.90,South,180,8.1,10.3,76,0.00,,,0.81,WUHU216HW,2013-07-08 19:49:00,
2013-07-08 15:50:00,79.6,71.3,29.90,South,180,8.1,10.3,76,0.00,,,0.81,WUHU216HW,2013-07-08 19:50:00,
2013-07-08 15:51:00,79.4,71.1,29.90,South,180,8.1,10.3,76,0.00,,,0.81,WUHU216HW,2013-07-08 19:51:00,
2013-07-08 15:52:00,79.4,71.6,29.90,South,180,8.7,10.3,77,0.00,,,0.81,WUHU216HW,2013-07-08 19:52:00,
2013-07-08 15:53:00,79.4,71.6,29.89,South,180,5.4,10.3,77,0.00,,,0.81,WUHU216HW,2013-07-08 19:53:00,
2013-07-08 15:54:00,79.4,71.6,29.89,SSW,203,10.5,10.5,77,0.00,,,0.81,WUHU216HW,2013-07-08 19:54:00,
2013-07-08 15:55:00,79.4,71.6,29.89,SSW,203,6.9,10.5,77,0.00,,,0.81,WUHU216HW,2013-07-08 19:55:00,
2013-07-08 15:56:00,79.2,71.4,29.89,South,180,8.9,10.5,77,0.00,,,0.81,WUHU216HW,2013-07-08 19:56:00,
2013-07-08 15:57:00,79.2,70.9,29.89,South,180,8.9,10.5,76,0.00,,,0.81,WUHU216HW,2013-07-08 19:57:00,
2013-07-08 15:58:00,79.0,70.7,29.89,SSW,203,9.2,10.5,76,0.00,,,0.81,WUHU216HW,2013-07-08 19:58:00,
2013-07-08 15:59:00,78.8,70.6,29.89,SSE,158,8.9,10.5,76,0.00,,,0.81,WUHU216HW,2013-07-08 19:59:00,
2013-07-08 16:00:00,78.8,70.6,29.89,SSW,203,6.3,10.5,76,0.00,,,0.81,WUHU216HW,2013-07-08 20:00:00,
2013-07-08 16:01:00,78.7,70.0,29.89,SSW,203,9.2,10.5,75,0.00,,,0.81,WUHU216HW,2013-07-08 20:01:00,
2013-07-08 16:02:00,78.7,70.4,29.89,SSW,203,9.6,10.5,76,0.00,,,0.81,WUHU216HW,2013-07-08 20:02:00,
2013-07-08 16:03:00,78.5,70.7,29.89,SSW,203,8.5,10.5,77,0.00,,,0.81,WUHU216HW,2013-07-08 20:03:00,
2013-07-08 16:04:00,78.3,70.5,29.89,SSW,203,9.8,10.5,77,0.00,,,0.81,WUHU216HW,2013-07-08 20:04:00,
2013-07-08 16:05:00,78.5,70.7,29.89,SSW,203,9.2,10.5,77,0.00,,,0.81,WUHU216HW,2013-07-08 20:05:00,
2013-07-08 16:06:00,78.7,71.2,29.89,South,180,10.1,10.5,78,0.00,,,0.81,WUHU216HW,2013-07-08 20:06:00,
2013-07-08 16:12:00,79.0,70.7,29.90,South,180,9.4,11.6,76,0.00,,,0.81,WUHU216HW,2013-07-08 20:12:00,
2013-07-08 16:13:00,78.8,70.2,29.90,South,180,6.9,11.6,75,0.00,,,0.81,WUHU216HW,2013-07-08 20:13:00,
2013-07-08 16:15:00,78.5,69.8,29.90,SE,135,9.8,11.6,75,0.00,,,0.81,WUHU216HW,2013-07-08 20:15:00,
2013-07-08 16:16:00,78.1,69.9,29.90,South,180,7.2,11.6,76,0.00,,,0.81,WUHU216HW,2013-07-08 20:16:00,
2013-07-08 16:18:00,77.8,69.6,29.90,SSW,203,4.5,11.6,76,0.00,,,0.81,WUHU216HW,2013-07-08 20:18:00,
2013-07-08 16:19:00,77.4,69.2,29.90,SSW,203,4.7,10.5,76,0.00,,,0.81,WUHU216HW,2013-07-08 20:19:00,
2013-07-08 16:21:00,77.0,69.2,29.90,South,180,6.7,10.5,77,0.00,,,0.81,WUHU216HW,2013-07-08 20:21:00,
2013-07-08 16:22:00,76.7,69.3,29.90,SW,225,4.3,9.8,78,0.00,,,0.81,WUHU216HW,2013-07-08 20:22:00,
2013-07-08 16:23:00,76.3,68.9,29.90,South,180,5.6,9.8,78,0.00,,,0.81,WUHU216HW,2013-07-08 20:23:00,
2013-07-08 16:24:00,76.3,68.9,29.90,SSE,158,4.0,9.8,78,0.00,,,0.81,WUHU216HW,2013-07-08 20:24:00,
2013-07-08 16:25:00,76.0,68.7,29.90,South,180,2.5,8.3,78,0.00,,,0.81,WUHU216HW,2013-07-08 20:25:00,
2013-07-08 16:26:00,76.0,69.0,29.90,SSE,158,2.7,8.3,79,0.00,,,0.81,WUHU216HW,2013-07-08 20:26:00,
2013-07-08 16:27:00,75.8,68.9,29.90,East,90,1.6,8.3,79,0.00,,,0.81,WUHU216HW,2013-07-08 20:27:00,
2013-07-08 16:28:00,75.8,69.2,29.90,ENE,68,1.8,7.6,80,0.00,,,0.81,WUHU216HW,2013-07-08 20:28:00,
2013-07-08 16:33:00,75.1,68.6,29.91,ESE,113,2.0,5.4,80,0.00,,,0.81,WUHU216HW,2013-07-08 20:33:00,
2013-07-08 16:39:00,74.9,68.8,29.90,South,180,1.3,5.1,81,0.00,,,0.81,WUHU216HW,2013-07-08 20:39:00,
2013-07-08 16:44:00,74.7,68.6,29.90,SSE,158,4.5,5.1,81,0.00,,,0.81,WUHU216HW,2013-07-08 20:44:00,
2013-07-08 16:49:00,74.7,68.6,29.90,SSE,158,3.4,5.1,81,0.00,,,0.81,WUHU216HW,2013-07-08 20:49:00,
2013-07-08 16:50:00,74.9,69.1,29.90,SE,135,2.2,5.1,82,0.00,,,0.81,WUHU216HW,2013-07-08 20:50:00,
2013-07-08 16:55:00,75.2,69.5,29.90,South,180,2.5,5.4,82,0.00,,,0.81,WUHU216HW,2013-07-08 20:55:00,
2013-07-08 17:00:00,75.6,69.4,29.90,SSE,158,3.4,6.3,81,0.00,,,0.81,WUHU216HW,2013-07-08 21:00:00,
2013-07-08 17:06:00,76.5,70.3,29.90,SSW,203,2.5,6.3,81,0.00,,,0.81,WUHU216HW,2013-07-08 21:06:00,
2013-07-08 17:12:00,77.0,70.0,29.90,South,180,6.5,7.4,79,0.00,,,0.81,WUHU216HW,2013-07-08 21:12:00,
2013-07-08 17:17:00,77.6,70.1,29.90,SSW,203,5.4,7.4,78,0.00,,,0.81,WUHU216HW,2013-07-08 21:17:00,
2013-07-08 17:22:00,77.8,70.3,29.89,SSW,203,3.4,6.9,78,0.00,,,0.81,WUHU216HW,2013-07-08 21:22:00,
2013-07-08 17:27:00,77.8,70.3,29.90,SSE,158,4.9,6.3,78,0.00,,,0.81,WUHU216HW,2013-07-08 21:27:00,
2013-07-08 17:32:00,78.3,70.8,29.90,SE,135,1.8,5.1,78,0.00,,,0.81,WUHU216HW,2013-07-08 21:32:00,
2013-07-08 17:38:00,79.4,71.6,29.90,SSE,158,3.8,5.8,77,0.00,,,0.81,WUHU216HW,2013-07-08 21:38:00,
2013-07-08 17:43:00,79.6,70.9,29.89,SE,135,7.2,8.3,75,0.00,,,0.81,WUHU216HW,2013-07-08 21:43:00,
2013-07-08 17:48:00,79.6,70.6,29.89,SE,135,5.6,8.3,74,0.00,,,0.81,WUHU216HW,2013-07-08 21:48:00,
2013-07-08 17:53:00,79.4,70.4,29.90,South,180,2.5,8.3,74,0.00,,,0.81,WUHU216HW,2013-07-08 21:53:00,
2013-07-08 17:58:00,79.6,70.6,29.89,ESE,113,1.1,5.8,74,0.00,,,0.81,WUHU216HW,2013-07-08 21:58:00,
2013-07-08 18:03:00,80.1,71.1,29.90,South,180,1.6,4.9,74,0.00,,,0.81,WUHU216HW,2013-07-08 22:03:00,
2013-07-08 18:08:00,80.6,71.2,29.90,SSE,158,1.6,4.3,73,0.00,,,0.81,WUHU216HW,2013-07-08 22:08:00,
2013-07-08 18:14:00,80.6,71.2,29.90,South,180,0.9,2.5,73,0.00,,,0.81,WUHU216HW,2013-07-08 22:14:00,
2013-07-08 18:19:00,80.5,70.7,29.90,SE,135,3.6,4.9,72,0.00,,,0.81,WUHU216HW,2013-07-08 22:19:00,
2013-07-08 18:24:00,80.3,70.8,29.90,SSE,158,2.5,4.9,73,0.00,,,0.81,WUHU216HW,2013-07-08 22:24:00,
2013-07-08 18:30:00,80.5,70.2,29.90,SSW,203,3.4,4.0,71,0.00,,,0.81,WUHU216HW,2013-07-08 22:30:00,
2013-07-08 18:35:00,80.5,70.7,29.90,South,180,2.7,4.0,72,0.00,,,0.81,WUHU216HW,2013-07-08 22:35:00,
2013-07-08 18:40:00,81.5,71.3,29.90,West,270,1.1,3.8,71,0.00,,,0.81,WUHU216HW,2013-07-08 22:40:00,
2013-07-08 18:45:00,83.0,72.6,29.90,SE,135,0.7,1.8,71,0.00,,,0.81,WUHU216HW,2013-07-08 22:45:00,
2013-07-08 18:50:00,81.9,69.9,29.90,South,180,1.1,1.6,67,0.00,,,0.81,WUHU216HW,2013-07-08 22:50:00,
2013-07-08 18:56:00,80.5,69.8,29.91,SW,225,0.4,1.3,70,0.00,,,0.81,WUHU216HW,2013-07-08 22:56:00,
2013-07-08 19:01:00,79.6,69.3,29.91,NNE,23,1.3,1.6,71,0.00,,,0.81,WUHU216HW,2013-07-08 23:01:00,
2013-07-08 19:06:00,77.0,68.5,29.90,NNE,23,1.1,1.6,75,0.00,,,0.81,WUHU216HW,2013-07-08 23:06:00,
2013-07-08 19:12:00,76.1,68.1,29.90,North,0,0.0,1.6,76,0.00,,,0.81,WUHU216HW,2013-07-08 23:12:00,
2013-07-08 19:17:00,76.0,68.2,29.91,NNE,23,0.0,1.1,77,0.00,,,0.81,WUHU216HW,2013-07-08 23:17:00,
2013-07-08 19:22:00,76.1,68.8,29.91,SSW,203,1.8,2.9,78,0.00,,,0.81,WUHU216HW,2013-07-08 23:22:00,
2013-07-08 19:28:00,76.0,68.7,29.91,East,90,0.9,2.9,78,0.00,,,0.81,WUHU216HW,2013-07-08 23:28:00,
2013-07-08 19:33:00,75.8,68.9,29.90,ENE,68,1.1,1.3,79,0.00,,,0.81,WUHU216HW,2013-07-08 23:33:00,
2013-07-08 19:38:00,75.6,68.7,29.90,NW,315,0.7,1.3,79,0.00,,,0.81,WUHU216HW,2013-07-08 23:38:00,
2013-07-08 19:44:00,75.4,69.0,29.90,NW,315,0.0,0.7,80,0.00,,,0.81,WUHU216HW,2013-07-08 23:44:00,
2013-07-08 19:49:00,75.2,69.1,29.90,NW,315,0.0,0.4,81,0.00,,,0.81,WUHU216HW,2013-07-08 23:49:00,
2013-07-08 19:54:00,74.9,68.8,29.90,East,90,0.0,0.0,81,0.00,,,0.81,WUHU216HW,2013-07-08 23:54:00,
2013-07-08 19:59:00,74.5,68.4,29.91,East,90,0.0,0.0,81,0.00,,,0.81,WUHU216HW,2013-07-08 23:59:00,
2013-07-08 20:05:00,74.2,68.4,29.91,SSE,158,0.0,0.0,82,0.00,,,0.81,WUHU216HW,2013-07-09 00:05:00,
2013-07-08 20:10:00,73.8,68.1,29.91,West,270,1.1,1.8,82,0.00,,,0.81,WUHU216HW,2013-07-09 00:10:00,
2013-07-08 20:15:00,73.1,67.6,29.92,North,0,1.1,1.8,83,0.00,,,0.81,WUHU216HW,2013-07-09 00:15:00,
2013-07-08 20:20:00,72.7,67.2,29.92,North,0,0.2,1.6,83,0.00,,,0.81,WUHU216HW,2013-07-09 00:20:00,
2013-07-08 20:25:00,72.4,66.9,29.92,North,0,0.0,1.1,83,0.00,,,0.81,WUHU216HW,2013-07-09 00:25:00,
2013-07-08 20:30:00,72.2,67.1,29.93,SSE,158,0.9,1.1,84,0.00,,,0.81,WUHU216HW,2013-07-09 00:30:00,
2013-07-08 20:35:00,72.0,66.9,29.93,SSE,158,0.9,1.6,84,0.00,,,0.81,WUHU216HW,2013-07-09 00:35:00,
2013-07-08 20:41:00,71.8,66.7,29.93,SE,135,0.0,1.6,84,0.00,,,0.81,WUHU216HW,2013-07-09 00:41:00,
2013-07-08 20:46:00,71.5,66.3,29.93,SE,135,0.0,1.3,84,0.00,,,0.81,WUHU216HW,2013-07-09 00:46:00,
2013-07-08 20:51:00,71.1,66.3,29.93,SE,135,0.0,0.0,85,0.00,,,0.81,WUHU216HW,2013-07-09 00:51:00,
2013-07-08 20:56:00,70.9,66.2,29.93,ESE,113,0.0,1.3,85,0.00,,,0.81,WUHU216HW,2013-07-09 00:56:00,
2013-07-08 21:01:00,70.7,66.3,29.93,NNE,23,0.0,1.3,86,0.00,,,0.81,WUHU216HW,2013-07-09 01:01:00,
2013-07-08 21:07:00,70.6,66.2,29.93,NNE,23,0.0,0.7,86,0.00,,,0.81,WUHU216HW,2013-07-09 01:07:00,
2013-07-08 21:13:00,70.2,65.8,29.93,SW,225,0.0,0.0,86,0.00,,,0.81,WUHU216HW,2013-07-09 01:13:00,
2013-07-08 21:18:00,70.2,65.8,29.93,WSW,248,0.4,0.9,86,0.00,,,0.81,WUHU216HW,2013-07-09 01:18:00,
2013-07-08 21:23:00,69.8,65.8,29.94,NNW,338,1.1,1.1,87,0.00,,,0.81,WUHU216HW,2013-07-09 01:23:00,
2013-07-08 21:28:00,69.8,66.1,29.94,NW,315,1.1,1.1,88,0.00,,,0.81,WUHU216HW,2013-07-09 01:28:00,
2013-07-08 21:34:00,69.7,65.9,29.94,NNW,338,0.0,1.1,88,0.00,,,0.81,WUHU216HW,2013-07-09 01:34:00,
2013-07-08 21:39:00,69.7,65.9,29.95,SE,135,2.2,2.7,88,0.00,,,0.81,WUHU216HW,2013-07-09 01:39:00,
2013-07-08 21:44:00,69.7,65.9,29.94,SE,135,0.0,2.7,88,0.00,,,0.81,WUHU216HW,2013-07-09 01:44:00,
2013-07-08 21:49:00,69.5,65.7,29.95,WNW,293,0.4,2.2,88,0.00,,,0.81,WUHU216HW,2013-07-09 01:49:00,
2013-07-08 21:55:00,69.3,65.6,29.95,WSW,248,0.9,1.1,88,0.00,,,0.81,WUHU216HW,2013-07-09 01:55:00,
2013-07-08 22:00:00,69.5,65.7,29.95,West,270,0.0,1.3,88,0.00,,,0.81,WUHU216HW,2013-07-09 02:00:00,
2013-07-08 22:05:00,69.5,66.1,29.96,West,270,0.0,1.3,89,0.00,,,0.81,WUHU216HW,2013-07-09 02:05:00,
2013-07-08 22:10:00,69.5,66.1,29.96,West,270,0.0,0.0,89,0.00,,,0.81,WUHU216HW,2013-07-09 02:10:00,
2013-07-08 22:15:00,69.5,65.7,29.96,SSW,203,2.0,2.0,88,0.00,,,0.81,WUHU216HW,2013-07-09 02:15:00,
2013-07-08 22:20:00,69.5,66.1,29.96,SSW,203,1.1,2.7,89,0.00,,,0.81,WUHU216HW,2013-07-09 02:20:00,
2013-07-08 22:26:00,69.3,65.9,29.96,South,180,2.2,5.8,89,0.00,,,0.81,WUHU216HW,2013-07-09 02:26:00,
2013-07-08 22:32:00,69.1,65.7,29.96,SW,225,0.9,5.8,89,0.00,,,0.81,WUHU216HW,2013-07-09 02:32:00,
2013-07-08 22:37:00,69.1,65.7,29.96,South,180,0.2,4.7,89,0.00,,,0.81,WUHU216HW,2013-07-09 02:37:00,
2013-07-08 22:42:00,68.9,65.5,29.96,SW,225,1.3,4.7,89,0.00,,,0.81,WUHU216HW,2013-07-09 02:42:00,
2013-07-08 22:48:00,68.9,65.5,29.96,West,270,1.3,1.8,89,0.00,,,0.81,WUHU216HW,2013-07-09 02:48:00,
2013-07-08 22:53:00,68.9,65.5,29.96,West,270,0.0,1.8,89,0.00,,,0.81,WUHU216HW,2013-07-09 02:53:00,
2013-07-08 22:58:00,68.8,65.3,29.96,SSE,158,1.6,2.2,89,0.00,,,0.81,WUHU216HW,2013-07-09 02:58:00,
2013-07-08 23:04:00,68.9,65.5,29.96,SE,135,0.7,2.2,89,0.00,,,0.81,WUHU216HW,2013-07-09 03:04:00,
2013-07-08 23:09:00,68.9,65.5,29.96,South,180,1.1,1.8,89,0.00,,,0.81,WUHU216HW,2013-07-09 03:09:00,
2013-07-08 23:14:00,68.8,65.3,29.96,NE,45,1.6,1.6,89,0.00,,,0.81,WUHU216HW,2013-07-09 03:14:00,
2013-07-08 23:20:00,68.8,65.7,29.96,NNE,23,0.4,1.8,90,0.00,,,0.81,WUHU216HW,2013-07-09 03:20:00,
2013-07-08 23:25:00,68.8,65.7,29.96,NNW,338,0.9,2.0,90,0.00,,,0.81,WUHU216HW,2013-07-09 03:25:00,
2013-07-08 23:30:00,68.8,65.7,29.96,NW,315,1.3,2.0,90,0.00,,,0.81,WUHU216HW,2013-07-09 03:30:00,
2013-07-08 23:35:00,68.6,65.5,29.96,NW,315,0.7,2.0,90,0.00,,,0.81,WUHU216HW,2013-07-09 03:35:00,
2013-07-08 23:41:00,68.6,65.5,29.96,NW,315,0.0,1.1,90,0.00,,,0.81,WUHU216HW,2013-07-09 03:41:00,
2013-07-08 23:46:00,68.6,65.5,29.96,West,270,0.9,1.3,90,0.00,,,0.81,WUHU216HW,2013-07-09 03:46:00,
2013-07-08 23:51:00,68.6,65.5,29.96,West,270,0.4,2.0,90,0.00,,,0.81,WUHU216HW,2013-07-09 03:51:00,
2013-07-08 23:56:00,68.6,65.5,29.96,WSW,248,0.0,2.0,90,0.00,,,0.81,WUHU216HW,2013-07-09 03:56:00,